Hourly Data Report for October 02, 2016

All times are specified in Local Standard Time (LST). Add 1 hour to adjust for Daylight Saving Time where and when it is observed.

QIKIQTARJUAQ A
NUNAVUT

67°32'48.000" N
64°01'54.000" W
5.50 m
2400577
YVM

Download Data

Hourly Data (October 2016)
Hourly Data Report for October 2, 2016
Temp Definition
°C
Dew Point Temp Definition
°C
Rel Hum Definition
%
Wind Dir Definition
10's deg

Wind Spd Definition
km/h
Visibility Definition
km
Stn Press Definition
kPa
Hmdx Definition


Wind Chill Definition


Weather Definition


TIME
00:00 Legend Double Dagger 0.6 -2.5 80 35 11 16.1 100.92     Rain
01:00 Legend Double Dagger 0.4 -2.3 82 35 9 16.1 100.91     Rain
02:00 Legend Double Dagger 0.3 -2.1 84 32 5 16.1 100.91     Snow
03:00 Legend Double Dagger -0.2 -2.1 87 LegendMM 4 8.1 100.89   -1 Snow
04:00 Legend Double Dagger -0.5 -1.8 91   0 6.4 100.90     Snow
05:00 Legend Double Dagger -0.7 -1.6 94 19 4 16.1 100.88   -2 Snow
06:00 Legend Double Dagger -0.5 -1.9 90 19 5 16.1 100.87   -2 LegendNANA
07:00 Legend Double Dagger -0.5 -1.6 92 19 9 16.1 100.83   -4 LegendNANA
08:00 Legend Double Dagger -0.5 -1.8 91 19 11 16.1 100.79   -4 LegendNANA
09:00 Legend Double Dagger -0.3 -1.7 91 19 11 16.1 100.77   -4 LegendNANA
10:00 Legend Double Dagger 0.0 -1.8 88 20 5 16.1 100.75   -2 LegendNANA
11:00 Legend Double Dagger 0.2 -1.9 86   0 16.1 100.73     LegendNANA
12:00 Legend Double Dagger 0.2 -1.4 89 1 11 16.1 100.73     LegendNANA
13:00 Legend Double Dagger -0.7 -2.8 86 5 5 16.1 100.74   -2 Snow
14:00 Legend Double Dagger -0.4 -2.6 85 19 5 16.1 100.72   -2 LegendNANA
15:00 Legend Double Dagger 0.1 -2.3 84   0 16.1 100.73     LegendNANA
16:00 Legend Double Dagger 0.3 -3.3 77 LegendMM 4 16.1 100.76     LegendNANA
17:00 Legend Double Dagger -0.3 -1.6 91 12 4 16.1 100.77   -2 LegendNANA
18:00 Legend Double Dagger -0.3 -1.7 90 8 5 16.1 100.81   -2 LegendNANA
19:00 Legend Double Dagger 0.0 -3.0 81 24 5 16.1 100.79   -2 LegendNANA
20:00 Legend Double Dagger -0.4 -1.5 92 6 11 16.1 100.83   -4 LegendNANA
21:00 Legend Double Dagger 0.0 -1.5 90 36 11 16.1 100.82   -4 LegendNANA
22:00 Legend Double Dagger -0.2 -1.8 89 4 8 16.1 100.83   -3 LegendNANA
23:00 Legend Double Dagger -0.2 -2.1 87 LegendMM 4 16.1 100.83   -1 LegendNANA

Notes on Data Quality.

Legend

  • E = Estimated
  • M = Missing
  • NA = Not Available
  • ‡ = Partner data that is not subject to review by the National Climate Archives
Date modified: